Tracking 29777 objects as of 5-Oct-2024
HD Live streaming from Space Station
objects crossing your sky now

ARIANE 5 R/B

Track ARIANE 5 R/B now!


NORAD ID: 41593
Int'l Code: 2016-039C
Perigee: 272.6 km
Apogee: 34,143.7 km
Inclination: 5.8 °
Period: 600.6 minutes
Semi major axis: 23579 km
RCS: Unknown
Launch date: June 18, 2016
Source: France (FR)
Launch site: FRENCH GUIANA (FRGUI)

Note: This is a ROCKET BODY
Your satellite tracking list
Your tracking list is empty




NASA's NSSDC Master Catalog

Two Line Element Set (TLE):
1 41593U 16039C   24278.03853657  .00004540  00000-0  17076-2 0  9997
2 41593   5.8125 214.8508 7182417 196.8390 113.7592  2.39778346 70553
Source of the keplerian elements: AFSPC